Regional Weather Roundup
Issued by NWS

Home | Current Version | Previous Version | Graphics & Text | Print | Product List | Glossary Off
Versions: 1 2 3 4 5 6 7 8 9 10 11 12 13 14 15 16 17 18 19 20 21 22 23 24 25 26 27 28 29 30 31 32 33 34 35 36 37 38 39 40 41 42 43 44 45 46 47 48 49 50

000
ASUS43 KMPX 280701
RWRMN
WEATHER ROUNDUP FOR MINNESOTA
NATIONAL WEATHER SERVICE TWIN CITIES/CHANHASSEN MN
100 AM CST FRI NOV 28 2014


NOTE: "FAIR" INDICATES FEW OR NO CLOUDS BELOW 12,000 FEET WITH NO
SIGNIFICANT WEATHER AND/OR OBSTRUCTIONS TO VISIBILITY. N/A MEANS
CURRENT SKY AND/OR WEATHER CONDITIONS ARE NOT AVAILABLE.

MNZ060>063-068>070-280800-
   Twin Cities Metro

CITY           SKY/WX    TMP DP  RH WIND       PRES   REMARKS
TWIN CITIES    LGT SNOW   6   3  87 SE7       30.24F FOG     WCI  -6
ST PAUL        LGT SNOW   8   4  83 SE9       30.27F FOG     WCI  -5
CRYSTAL        LGT SNOW   9   3  77 SE7       30.22F WCI  -2
BLAINE         LGT SNOW   9   5  85 SE7       30.22F WCI  -3
LAKEVILLE      LGT SNOW   5   3  92 E8        30.22F WCI  -8
EDEN PRAIRIE   LGT SNOW   7   3  84 E9        30.21F FOG     WCI  -7
SOUTH ST PAUL  LGT SNOW   8   4  82 SE3       30.25F
LAKE ELMO      LGT SNOW  10   5  79 SE6       30.24F WCI   1
$$
MNZ001>005-007-008-013>017-022>024-027-028-280800-
   Northwest Minnesota

CITY           SKY/WX    TMP DP  RH WIND       PRES   REMARKS
BEMIDJI        MOCLDY     7   1  78 SE6       30.08F WCI  -4
HALLOCK        CLOUDY     9   3  78 SE8       30.09F WCI  -4
ROSEAU         CLOUDY     9   1  72 SE5       30.11F WCI   0
WARROAD        CLOUDY     7   0  72 SE3       30.12F
THIEF RVR FALL CLOUDY     9   7  92 SE7       30.08F WCI  -3
CROOKSTON      CLOUDY    10   7  85 SE9       30.09F WCI  -2
FOSSTON        CLOUDY     7   3  85 SE6       30.06F WCI  -3
DETROIT LAKES  LGT SNOW   9   5  85 SE13      30.04F WCI  -7
MOORHEAD       LGT SNOW  12  10  92 S9        30.07  WCI   0
PARK RAPIDS    CLOUDY     5   1  83 SE12      30.09F WCI -11
MAHNOMEN       CLOUDY     8   3  78 SE9       30.06F WCI  -5
$$
MNZ006-009>011-018-025>026-280800-
   North Central Minnesota

CITY           SKY/WX    TMP DP  RH WIND       PRES   REMARKS
BAUDETTE       CLOUDY     5  -2  72 SE5       30.12F WCI  -4
FLAG ISLAND    CLOUDY     5   0  78 SE7       30.11F WCI  -7
INTL FALLS     CLOUDY     2  -5  72 E3        30.15F
WASKISH        CLOUDY     9   1  72 CALM      30.12F
BIG FORK       CLOUDY     9  -2  61 SE3       30.13F
LONGVILLE      FLURRIES   7   1  78 SE7       30.12F WCI  -5
GRAND RAPIDS   CLOUDY     7   0  72 S7        30.13F WCI  -5
CRANE LAKE     CLOUDY     1  -2  85 CALM      30.20F
ORR            CLOUDY     3  -6  66 SE5       30.12F WCI  -6
COOK           CLOUDY     5  -4  66 CALM      30.16F
WALKER         LGT SNOW   5   1  80 SE5       30.11F WCI  -4
$$
MNZ012-019>021-037-280800-
   Northeast Minnesota

CITY           SKY/WX    TMP DP  RH WIND       PRES   REMARKS
DULUTH         CLOUDY     7  -4  60 S5        30.18S WCI  -2
ELY            CLOUDY     1  -4  78 CALM      30.17S
HIBBING        CLOUDY     7  -4  60 S3        30.18S
EVELETH        MOCLDY     7  -2  66 CALM      30.19S
DULUTH HARBOR  CLOUDY     9  -2  61 CALM      30.28S
TWO HARBORS    CLOUDY    10   0  61 CALM      30.20S
SILVER BAY     MOCLDY     9  -2  61 CALM      30.20F
GRAND MARAIS     N/A     10  -3  55 NW5       30.26F WCI   2
G MARAIS ARPRT MOCLDY     0 -11  60 SW6       30.14F WCI -12
$$
MNZ029>031-032-039>041-046>048-054>057-064-280800-
   West Central Minnesota

CITY           SKY/WX    TMP DP  RH WIND       PRES   REMARKS
FERGUS FALLS   CLOUDY     9   3  78 SE13      30.09F WCI  -7
WHEATON        CLOUDY     7   1  78 SE18      30.07F WCI -12
MORRIS         CLOUDY     7   3  85 SE22      30.05F WCI -14
ALEXANDRIA     CLOUDY     6   1  80 SE15      30.07F WCI -12
ELBOW LAKE     LGT SNOW   9   4  81 SE12G20   30.05F WCI  -6
WADENA         LGT SNOW   5   1  85 SE9       30.08F WCI  -9
GLENWOOD       PTCLDY     7   3  85 E17       30.07F WCI -12
APPLETON       MOCLDY     9   1  72 SE15      30.06F WCI  -8
BENSON         CLOUDY     9   3  78 SE14G21   30.07F WCI  -8
ORTONVILLE     CLOUDY     7   1  78 SE13G21   30.04S WCI  -9
MADISON        MOCLDY    12   7  79 SE20      30.04F WCI  -6
WILLMAR        MOCLDY     9   1  72 SE20G25   30.09F WCI -11
$$
MNZ033>034-036-042>043-049>051-058-059-280800-
   Central Minnesota

CITY           SKY/WX    TMP DP  RH WIND       PRES   REMARKS
ST CLOUD       SNOW       7   2  80 SE6       30.18F VSB 1/2 WCI  -3
SAUK CENTRE    LGT SNOW   5   1  84 E12       30.11F WCI -11
PAYNESVILLE    LGT SNOW   4   1  87 E14       30.11F WCI -14
AITKIN         LGT SNOW  10   3  72 S3        30.15F
PINE RIVER     LGT SNOW   7   1  78 SE10      30.15F WCI  -8
BRAINERD       LGT SNOW   5   2  87 SE7       30.15F FOG     WCI  -7
STAPLES        FLURRIES   5   1  85 SE6       30.11F WCI  -6
LONG PRAIRIE   LGT SNOW   5   1  85 E9        30.11F WCI  -9
LITTLE FALLS   LGT SNOW   7   1  78 SE6       30.16F WCI  -3
LITCHFIELD     LGT SNOW   7   3  85 SE14      30.13F WCI -10
BUFFALO        LGT SNOW   7   3  84 E7        30.20F VSB 1   WCI  -5
MAPLE LAKE     LGT SNOW   7   4  87 SE8       30.18F VSB 1   WCI  -5
$$
MNZ037-044-045-052-053-280800-
   East Central Minnesota

CITY           SKY/WX    TMP DP  RH WIND       PRES   REMARKS
PRINCETON      LGT SNOW   9   3  78 SE6       30.20F WCI  -1
MORA             N/A    N/A N/A N/A MISG        N/A
CAMBRIDGE      LGT SNOW   9   1  72 SE3       30.21F
RUSH CITY      FLURRIES   8   3  79 S8        30.24F WCI  -4
MOOSE LAKE     LGT SNOW   9   1  72 S5        30.20S WCI   0
HINCKLEY       LGT SNOW   9   5  85 CALM      30.23F
CLOQUET        CLOUDY     7  -2  66 S5        30.19S WCI  -2
MCGREGOR       CLOUDY     9   3  78 S7        30.18F WCI  -3
$$
MNZ071>073-080-081-089-090-097-098-280800-
   Southwest Minnesota

CITY           SKY/WX    TMP DP  RH WIND       PRES   REMARKS
MONTEVIDEO     CLOUDY     7   1  78 S18       30.07F WCI -12
GRANITE FALLS  CLOUDY     7   1  76 E18       30.08F WCI -12
CANBY          CLOUDY    13   8  79 SE13      30.02F WCI  -2
MARSHALL       CLOUDY    12   3  67 SE14      30.03F WCI  -3
REDWOOD FALLS  CLOUDY     8   1  73 SE15G23   30.10F WCI  -9
OLIVIA         MOCLDY    10   5  79 SE20      30.09F WCI  -8
PIPESTONE      CLOUDY    16  10  79 S16       29.95F WCI   0
WINDOM         MOCLDY    10   3  72 SE14      30.03F WCI  -5
WORTHINGTON    CLOUDY    12   7  79 S14G21    30.00F WCI  -3
JACKSON        MOCLDY    12   5  73 SE13      30.05F WCI  -3
TRACY          CLOUDY    13   7  76 SE13      30.02F WCI  -1
SLAYTON        CLOUDY    13   9  82 SE16      29.99F WCI  -3
$$
MNZ065>067-074>077-082>085-091>093-280800-
   South Central Minnesota

CITY           SKY/WX    TMP DP  RH WIND       PRES   REMARKS
MANKATO        CLOUDY     9   1  72 SE17      30.15F WCI -10
NEW ULM        MOCLDY     9   3  78 SE12      30.13F WCI  -6
ST JAMES       CLOUDY    12   3  67 SE16      30.12F WCI  -4
FAIRMONT       CLOUDY    10   1  67 SE18      30.10F WCI  -8
GLENCOE        LGT SNOW   8   5  89 E13       30.17F WCI  -8
FARIBAULT      LGT SNOW   9   5  85 E9        30.20F WCI  -5
OWATONNA       MOCLDY     9   3  78 SE12      30.18F WCI  -6
WASECA         CLOUDY     9   3  78 SE14      30.19F WCI  -8
ALBERT LEA     CLOUDY    10   5  79 SE13      30.17F WCI  -5
$$
MNZ078>079-086>088-094>096-280800-
   Southeast Minnesota

CITY           SKY/WX    TMP DP  RH WIND       PRES   REMARKS
ROCHESTER      LGT SNOW   8   4  83 S12       30.22F FOG     WCI  -7
RED WING       LGT SNOW  10   5  79 SE7       30.25F WCI   0
STANTON        LGT SNOW  10   5  82 SE3       30.22F
DODGE CENTER   LGT SNOW   9   7  92 SE12      30.19F WCI  -6
WINONA         LGT SNOW  12   3  67 SE5       30.33F WCI   4
AUSTIN         FLURRIES   9   5  85 SE9       30.19F WCI  -5
PRESTON        LGT SNOW   8   4  84 S10       30.24F WCI  -6
$$
ABBREVIATIONS USED IN REMARKS
   TC - TEMPERATURES IN CELSIUS
  WCI - WIND CHILL INDEX
   HX - HEAT INDEX
  VSB - VISIBILITY
$$



USA.gov is the U.S. government's official web portal to all federal, state and local government web resources and services.